TimeHST,TemperatureF,Dew PointF,Humidity,Sea Level PressureIn,VisibilityMPH,Wind Direction,Wind SpeedMPH,Gust SpeedMPH,PrecipitationIn,Events,Conditions,WindDirDegrees,DateUTC
12:01 AM,27.0,19.9,75,30.14,10.0,WNW,13.8,32.2,0.00,,Overcast,290,2012-11-20 10:01:00
1:01 AM,28.0,19.9,72,30.13,10.0,WNW,17.3,29.9,0.00,,Overcast,290,2012-11-20 11:01:00
3:01 AM,28.0,19.9,72,30.13,10.0,WNW,21.9,35.7,0.00,,Overcast,290,2012-11-20 13:01:00
4:01 AM,27.0,19.9,75,30.13,10.0,WNW,19.6,29.9,0.00,,Overcast,290,2012-11-20 14:01:00
5:01 AM,27.0,19.9,75,30.13,10.0,WNW,21.9,29.9,0.00,,Overcast,300,2012-11-20 15:01:00
6:01 AM,26.1,19.0,75,30.13,10.0,WNW,17.3,27.6,0.00,,Overcast,300,2012-11-20 16:01:00
7:01 AM,26.1,19.9,78,30.12,10.0,WNW,18.4,27.6,0.00,,Overcast,300,2012-11-20 17:01:00
8:01 AM,26.1,19.9,78,30.12,10.0,WNW,20.7,29.9,0.00,Snow,Light Snow,300,2012-11-20 18:01:00
9:01 AM,26.1,19.0,75,30.12,8.0,WNW,17.3,26.5,0.00,Snow,Light Snow,300,2012-11-20 19:01:00
10:01 AM,26.1,19.9,78,30.12,6.0,WNW,17.3,33.4,0.00,Snow,Light Snow,300,2012-11-20 20:01:00
11:01 AM,26.1,19.9,78,30.12,7.0,WNW,19.6,34.5,0.00,Snow,Light Snow,300,2012-11-20 21:01:00
12:01 PM,27.0,19.9,75,30.10,8.0,WNW,16.1,34.5,0.00,Snow,Light Snow,290,2012-11-20 22:01:00
1:01 PM,27.0,19.9,75,30.09,8.0,West,18.4,32.2,0.00,Snow,Light Snow,280,2012-11-20 23:01:00
2:01 PM,26.1,19.9,78,30.07,8.0,WNW,23.0,31.1,0.00,,Overcast,300,2012-11-21 00:01:00
3:01 PM,26.1,19.9,78,30.08,7.0,WNW,23.0,40.3,0.00,,Overcast,290,2012-11-21 01:01:00
4:01 PM,26.1,19.9,78,30.08,5.0,West,19.6,46.0,0.00,Snow,Light Snow,280,2012-11-21 02:01:00
5:01 PM,26.1,19.0,75,30.09,6.0,WNW,25.3,40.3,0.00,Snow,Light Snow,290,2012-11-21 03:01:00
6:01 PM,25.0,19.0,78,30.09,8.0,West,29.9,43.7,0.00,Snow,Light Snow,280,2012-11-21 04:01:00
7:01 PM,25.0,18.0,75,30.09,10.0,WNW,26.5,39.1,0.00,,Overcast,290,2012-11-21 05:01:00
8:01 PM,25.0,18.0,75,30.09,7.0,WNW,29.9,43.7,0.00,Snow,Light Snow,290,2012-11-21 06:01:00
9:01 PM,24.1,18.0,77,30.11,3.0,WNW,31.1,39.1,0.00,Snow,Light Snow,290,2012-11-21 07:01:00
9:41 PM,24.8,17.6,74,29.82,2.0,WNW,25.3,33.4,0.00,Snow,Light Snow,290,2012-11-21 07:41:00
9:48 PM,24.8,17.6,74,29.82,1.8,West,31.1,41.4,0.00,Snow,Light Snow,280,2012-11-21 07:48:00
9:53 PM,24.8,17.6,74,29.82,3.0,WNW,24.2,40.3,0.00,Snow,Light Snow,300,2012-11-21 07:53:00
10:01 PM,24.1,17.1,75,30.11,6.0,WNW,25.3,38.0,0.00,Snow,Light Snow,290,2012-11-21 08:01:00
10:18 PM,24.8,17.6,74,29.82,1.8,West,28.8,36.8,0.00,Snow,Light Snow,280,2012-11-21 08:18:00
10:22 PM,24.8,17.6,74,29.82,0.8,West,23.0,35.7,0.00,Snow,Light Snow,280,2012-11-21 08:22:00
10:30 PM,23.0,19.4,86,29.81,0.5,WNW,24.2,38.0,0.00,Fog-Snow,Snow,290,2012-11-21 08:30:00
10:38 PM,23.0,19.4,86,29.81,1.0,WNW,24.2,36.8,0.00,Snow,Light Snow,290,2012-11-21 08:38:00
10:55 PM,23.0,17.6,80,29.81,1.5,WNW,25.3,40.3,0.00,Snow,Light Snow,300,2012-11-21 08:55:00
10:56 PM,23.0,17.6,80,29.81,1.8,WNW,26.5,40.3,0.00,Snow,Light Snow,300,2012-11-21 08:56:00
11:01 PM,23.0,17.6,80,29.80,1.8,NW,27.6,40.3,0.00,Snow,Light Snow,310,2012-11-21 09:01:00
11:11 PM,23.0,17.6,80,29.81,2.0,WNW,25.3,38.0,0.00,Snow,Light Snow,290,2012-11-21 09:11:00
11:21 PM,23.0,15.8,74,29.81,6.0,WNW,24.2,48.3,0.00,Snow,Light Snow,300,2012-11-21 09:21:00
11:43 PM,23.0,15.8,74,29.82,5.0,WNW,27.6,46.0,0.00,Snow,Blowing Snow,290,2012-11-21 09:43:00
11:51 PM,21.2,15.8,80,29.82,1.2,WNW,27.6,44.9,0.00,Snow,Light Snow,300,2012-11-21 09:51:00